FW7166 Weather Reports


time (UTC)temp
C
wind
direction
speed
KPH
gust
KPH
rain 1hr
cm
rain 24hr
cm
rain mn
cm
humidity
%
barometer
mb
20260505174027 11 268 3.2 19.3 0.00 0.00 0.00 30 1012.6
20260505173526 11 223 1.6 19.3 0.00 0.00 0.00 31 1012.7
20260505173025 12 228 1.6 19.3 0.00 0.00 0.00 30 1012.6
20260505172524 12 239 0.0 19.3 0.00 0.00 0.00 31 1012.5
20260505172024 12 237 0.0 19.3 0.00 0.00 0.00 30 1012.5
20260505171009 12 237 1.6 19.3 0.00 0.00 0.00 29 1012.4
20260505170508 12 257 3.2 19.3 0.00 0.00 0.00 29 1012.4
20260505170007 12 232 4.8 19.3 0.00 0.00 0.00 28 1012.4
20260505164952 12 237 3.2 19.3 0.00 0.00 0.00 28 1012.0
20260505164451 12 222 3.2 19.3 0.00 0.00 0.00 28 1012.2
20260505163950 12 255 3.2 19.3 0.00 0.00 0.00 28 1012.5
20260505162418 13 237 3.2 19.3 0.00 0.00 0.00 28 1012.3
20260505161918 13 245 1.6 19.3 0.00 0.00 0.00 27 1012.1
20260505161417 13 236 4.8 19.3 0.00 0.00 0.00 26 1012.2
20260505160917 13 243 3.2 19.3 0.00 0.00 0.00 27 1012.0
20260505160416 13 276 1.6 19.3 0.00 0.00 0.00 27 1012.2
20260505152914 13 215 3.2 19.3 0.00 0.00 0.00 25 1012.0
20260505152414 13 241 3.2 19.3 0.00 0.00 0.00 24 1012.3
20260505151914 13 241 3.2 19.3 0.00 0.00 0.00 23 1012.0
20260505150856 13 236 3.2 19.3 0.00 0.00 0.00 22 1012.3
20260505150357 13 241 4.8 19.3 0.00 0.00 0.00 22 1012.2
20260505140307 14 260 3.2 19.3 0.00 0.00 0.00 23 1011.9
20260505130231 14 200 1.6 17.7 0.00 0.00 0.00 26 1011.8
20260505124715 13 241 3.2 17.7 0.00 0.00 0.00 28 1012.0
20260505124214 13 228 3.2 17.7 0.00 0.00 0.00 26 1011.9
20260505123715 13 269 3.2 17.7 0.00 0.00 0.00 27 1011.8
20260505123214 13 222 1.6 17.7 0.00 0.00 0.00 26 1012.0
20260505122714 13 229 6.4 17.7 0.00 0.00 0.00 23 1012.2
20260505122214 13 259 4.8 17.7 0.00 0.00 0.00 24 1012.1
20260505121713 13 243 3.2 17.7 0.00 0.00 0.00 25 1011.8
20260505121212 13 242 6.4 17.7 0.00 0.00 0.00 22 1012.0
20260505120711 13 239 3.2 17.7 0.00 0.00 0.00 26 1012.0
20260505120211 13 333 1.6 17.7 0.00 0.00 0.00 26 1011.9
20260505115711 13 249 4.8 17.7 0.00 0.00 0.00 25 1012.1
20260505114140 13 302 3.2 17.7 0.00 0.00 0.00 26 1012.0
20260505113639 13 273 3.2 17.7 0.00 0.00 0.00 26 1012.1
20260505113138 13 244 1.6 17.7 0.00 0.00 0.00 26 1012.0
20260505112122 13 256 4.8 17.7 0.00 0.00 0.00 24 1011.7
20260505111106 12 299 3.2 17.7 0.00 0.00 0.00 27 1012.0
20260505100945 12 302 6.4 17.7 0.00 0.00 0.00 27 1012.4
20260505100445 12 260 3.2 17.7 0.00 0.00 0.00 29 1012.0
20260505095944 12 277 1.6 17.7 0.00 0.00 0.00 29 1012.1
20260505095444 12 272 3.2 17.7 0.00 0.00 0.00 28 1012.4
20260505094943 12 247 4.8 17.7 0.00 0.00 0.00 28 1012.3
20260505094442 12 247 4.8 17.7 0.00 0.00 0.00 28 1011.9
20260505093427 11 245 3.2 17.7 0.00 0.00 0.00 29 1012.3
20260505092927 11 229 6.4 17.7 0.00 0.00 0.00 31 1012.5
20260505091911 11 262 3.2 17.7 0.00 0.00 0.00 37 1012.4
20260505091411 11 243 1.6 17.7 0.00 0.00 0.00 35 1012.0
20260505090910 11 294 3.2 17.7 0.00 0.00 0.00 32 1011.7
20260505090410 12 273 1.6 17.7 0.00 0.00 0.00 34 1012.1
20260505085910 11 249 1.6 17.7 0.00 0.00 0.00 41 1011.7
20260505085410 11 262 3.2 17.7 0.00 0.00 0.00 37 1012.3
20260505084910 11 239 3.2 17.7 0.00 0.00 0.00 35 1012.0
20260505083853 11 236 3.2 17.7 0.00 0.00 0.00 40 1011.7
20260505082322 10 269 3.2 17.7 0.00 0.00 0.00 43 1011.9
20260505081822 10 252 3.2 17.7 0.00 0.00 0.00 45 1012.0
20260505080806 10 247 4.8 17.7 0.00 0.00 0.00 45 1011.7
20260505080305 10 249 1.6 17.7 0.00 0.00 0.00 47 1011.9
20260505075804 10 244 3.2 17.7 0.00 0.00 0.00 49 1011.7
20260505074232 10 230 4.8 17.7 0.00 0.00 0.00 50 1011.7
20260505073731 10 273 3.2 17.7 0.00 0.00 0.00 53 1011.9
20260505073231 10 204 1.6 17.7 0.00 0.00 0.00 56 1012.1
20260505072730 9 230 1.6 17.7 0.00 0.00 0.00 57 1011.6
20260505072229 9 225 4.8 17.7 0.00 0.00 0.00 55 1011.7
20260505071729 9 230 3.2 17.7 0.00 0.00 0.00 56 1012.0
20260505071229 9 220 3.2 17.7 0.00 0.00 0.00 58 1011.9
20260505070728 9 235 1.6 17.7 0.00 0.00 0.00 59 1011.5
20260505070228 9 150 3.2 17.7 0.00 0.00 0.00 60 1012.1
20260505065728 9 295 1.6 17.7 0.00 0.00 0.00 59 1011.7
20260505065227 8 284 3.2 17.7 0.00 0.00 0.00 61 1011.8
20260505064726 8 242 3.2 17.7 0.00 0.00 0.00 59 1011.8
20260505064226 8 234 4.8 17.7 0.00 0.00 0.00 62 1011.8
20260505063726 8 247 3.2 17.7 0.00 0.00 0.00 63 1011.7
20260505063225 8 224 4.8 17.7 0.00 0.00 0.00 63 1011.8
20260505062209 8 223 4.8 17.7 0.00 0.00 0.00 68 1011.7
20260505061709 8 297 1.6 17.7 0.00 0.00 0.00 70 1011.8
20260505061209 8 267 3.2 17.7 0.00 0.00 0.00 70 1011.7
20260505060709 8 250 3.2 17.7 0.00 0.00 0.00 71 1011.6
20260505060208 8 254 1.6 17.7 0.00 0.00 0.00 72 1011.7
20260505055708 8 242 1.6 17.7 0.00 0.00 0.00 72 1011.6
20260505055207 8 229 1.6 17.7 0.00 0.00 0.00 73 1011.5
20260505054707 8 257 0.0 17.7 0.00 0.00 0.00 79 1011.6
20260505054206 7 237 3.2 17.7 0.00 0.00 0.00 78 1011.4
20260505053705 7 200 3.2 17.7 0.00 0.00 0.00 80 1011.7
20260505053205 7 226 3.2 17.7 0.00 0.00 0.00 81 1011.5
20260505052704 7 221 1.6 17.7 0.00 0.00 0.00 81 1011.5
20260505052203 7 198 1.6 17.7 0.00 0.00 0.00 82 1011.6
20260505051703 7 199 3.2 17.7 0.00 0.00 0.00 81 1011.6
20260505051202 7 233 1.6 17.7 0.00 0.00 0.00 82 1011.5
20260505050701 7 205 3.2 17.7 0.00 0.00 0.00 82 1011.6
20260505050200 7 204 3.2 17.7 0.00 0.00 0.00 82 1011.1
20260505041639 7 233 1.6 17.7 0.00 0.00 0.00 86 1011.5
20260505041139 7 217 0.0 17.7 0.00 0.00 0.00 86 1011.2
20260505040638 6 217 1.6 17.7 0.00 0.00 0.00 86 1011.3
20260505035623 6 215 0.0 17.7 0.00 0.00 0.00 86 1011.4
20260505035122 6 220 1.6 17.7 0.00 0.00 0.00 86 1011.3
20260505034622 7 203 1.6 17.7 0.00 0.00 0.00 86 1011.0
20260505033050 6 204 1.6 17.7 0.00 0.00 0.00 86 1011.5
20260505032550 7 206 0.0 17.7 0.00 0.00 0.00 86 1011.3
20260505032050 6 194 1.6 17.7 0.00 0.00 0.00 86 1011.4
20260505031550 6 212 1.6 17.7 0.00 0.00 0.00 86 1011.2
20260505030534 6 190 0.0 17.7 0.00 0.00 0.00 86 1011.7
20260505030034 6 170 1.6 17.7 0.00 0.00 0.00 86 1011.5
20260505025534 6 229 1.6 17.7 0.00 0.00 0.00 86 1011.2
20260505025034 6 207 3.2 17.7 0.00 0.00 0.00 86 1011.6
20260505024534 6 224 1.6 17.7 0.00 0.00 0.00 86 1011.3
20260505022448 6 222 3.2 17.7 0.00 0.00 0.00 86 1011.4
20260505021947 6 204 3.2 17.7 0.00 0.00 0.00 86 1011.8
20260505021447 6 194 0.0 17.7 0.00 0.00 0.00 86 1011.8
20260505020947 6 218 4.8 17.7 0.00 0.00 0.00 86 1011.5
20260505020446 6 200 3.2 17.7 0.00 0.00 0.00 87 1011.3
20260505015945 6 217 3.2 17.7 0.00 0.00 0.00 86 1011.6
20260505015445 6 224 1.6 17.7 0.00 0.00 0.00 87 1011.6
20260505014945 6 202 1.6 17.7 0.00 0.00 0.00 87 1011.9
20260505014445 6 190 3.2 17.7 0.00 0.00 0.00 87 1011.8
20260505013945 6 161 3.2 17.7 0.00 0.00 0.00 86 1011.9
20260505013445 6 218 3.2 17.7 0.00 0.00 0.00 87 1011.7
20260505011913 6 189 1.6 17.7 0.00 0.00 0.00 86 1011.8
20260505010858 6 244 1.6 17.7 0.00 0.00 0.00 86 1011.4
20260505010357 6 216 1.6 17.7 0.00 0.00 0.00 86 1011.7
20260505005342 6 212 1.6 17.7 0.00 0.00 0.00 85 1011.6
20260505004842 6 211 1.6 17.7 0.00 0.00 0.00 85 1011.5
20260505004341 6 211 3.2 17.7 0.00 0.00 0.00 84 1011.6
20260505003841 6 215 1.6 17.7 0.00 0.00 0.00 84 1011.6
20260505003340 7 227 1.6 17.7 0.00 0.00 0.00 83 1011.9
20260505002325 7 216 3.2 17.7 0.00 0.00 0.00 83 1011.7
20260505001825 7 213 3.2 17.7 0.00 0.00 0.00 82 1012.0
20260505001325 7 199 1.6 17.7 0.00 0.00 0.00 82 1011.7
20260505000825 7 218 3.2 17.7 0.00 0.00 0.00 83 1012.1
20260504235809 7 229 3.2 17.7 0.00 0.00 0.00 83 1011.6
20260504235308 7 195 3.2 17.7 0.00 0.00 0.00 83 1011.6
20260504234253 7 207 1.6 17.7 0.00 0.00 0.00 83 1012.1
20260504233752 7 177 1.6 17.7 0.00 0.00 0.00 83 1012.1
20260504233252 7 211 3.2 17.7 0.00 0.00 0.00 83 1011.9
20260504232752 7 211 3.2 17.7 0.00 0.00 0.00 83 1011.6
20260504232252 7 221 1.6 17.7 0.00 0.00 0.00 83 1012.2
20260504231751 7 213 3.2 17.7 0.00 0.00 0.00 82 1011.7
20260504231250 7 213 3.2 17.7 0.00 0.00 0.00 83 1011.9
20260504230750 7 194 1.6 17.7 0.00 0.00 0.00 83 1012.2
20260504230250 7 206 4.8 17.7 0.00 0.00 0.00 83 1012.0
20260504225749 7 209 3.2 17.7 0.00 0.00 0.00 83 1011.7
20260504225248 7 196 3.2 17.7 0.00 0.00 0.00 83 1012.3
20260504224748 7 196 3.2 17.7 0.00 0.00 0.00 83 1012.0
20260504224248 7 178 3.2 17.7 0.00 0.00 0.00 83 1012.3
20260504223748 7 225 1.6 17.7 0.00 0.00 0.00 83 1012.2
20260504223247 7 206 3.2 17.7 0.00 0.00 0.00 83 1012.1
20260504222747 7 227 3.2 17.7 0.00 0.00 0.00 83 1012.0
20260504222247 7 219 3.2 17.7 0.00 0.00 0.00 83 1012.2
20260504221747 7 236 1.6 17.7 0.00 0.00 0.00 83 1011.9
20260504221247 7 225 3.2 17.7 0.00 0.00 0.00 83 1012.1
20260504220746 7 223 1.6 17.7 0.00 0.00 0.00 83 1012.0
20260504220245 7 226 3.2 17.7 0.00 0.00 0.00 83 1012.0
20260504215745 7 231 3.2 17.7 0.00 0.00 0.25 83 1012.1
20260504215245 7 207 3.2 17.7 0.00 0.00 0.25 83 1012.4
20260504214745 7 195 4.8 17.7 0.00 0.00 0.25 83 1012.3
20260504214245 7 181 1.6 17.7 0.00 0.00 0.25 83 1012.0
20260504213744 7 197 3.2 17.7 0.00 0.00 0.25 82 1012.6
20260504213243 7 209 1.6 17.7 0.00 0.00 0.25 82 1011.8
20260504212227 7 212 0.0 17.7 0.00 0.00 0.25 81 1011.9
20260504211726 7 219 3.2 17.7 0.00 0.00 0.25 81 1011.9
20260504211226 7 215 1.6 17.7 0.00 0.00 0.25 80 1012.4
20260504210726 7 234 3.2 17.7 0.00 0.00 0.25 80 1012.0
20260504210226 8 206 3.2 17.7 0.00 0.00 0.25 79 1012.0
20260504205726 8 214 1.6 17.7 0.00 0.00 0.25 79 1011.8
20260504205226 8 167 1.6 17.7 0.00 0.00 0.25 78 1012.2
20260504204725 8 216 3.2 17.7 0.00 0.00 0.25 78 1012.2
20260504204224 8 224 3.2 17.7 0.00 0.00 0.25 77 1011.8
20260504203724 8 230 1.6 17.7 0.00 0.00 0.25 76 1012.0
20260504203224 8 229 3.2 17.7 0.00 0.00 0.25 76 1012.1
20260504202723 8 201 4.8 17.7 0.00 0.00 0.25 75 1012.2
20260504202223 8 229 3.2 17.7 0.00 0.00 0.25 74 1011.9
20260504201723 8 210 1.6 17.7 0.00 0.00 0.25 73 1012.2
20260504201222 8 232 4.8 17.7 0.00 0.00 0.25 72 1012.0
20260504200722 8 235 3.2 17.7 0.00 0.00 0.25 71 1011.6
20260504200222 8 216 3.2 17.7 0.00 0.00 0.25 68 1011.9
20260504195721 8 190 1.6 17.7 0.00 0.00 0.25 67 1011.7
20260504194706 9 205 3.2 17.7 0.00 0.00 0.25 64 1011.5
20260504194205 9 230 3.2 17.7 0.00 0.00 0.25 63 1011.8
20260504193148 9 234 1.6 17.7 0.00 0.00 0.25 62 1011.4
20260504192648 9 227 1.6 17.7 0.00 0.00 0.25 61 1011.7
20260504192147 10 247 0.0 17.7 0.00 0.00 0.25 60 1011.9
20260504191645 10 195 1.6 17.7 0.00 0.00 0.25 59 1011.4
20260504190629 10 177 1.6 17.7 0.00 0.00 0.25 58 1011.8
20260504190129 10 185 1.6 17.7 0.00 0.00 0.25 58 1011.8
20260504185629 10 208 1.6 17.7 0.00 0.00 0.25 57 1011.7
20260504185129 10 179 1.6 17.7 0.00 0.00 0.25 56 1011.6
20260504184113 11 201 1.6 17.7 0.00 0.00 0.25 53 1011.3
20260504183613 11 195 3.2 17.7 0.00 0.00 0.25 52 1011.4
20260504183112 11 218 3.2 17.7 0.00 0.00 0.25 51 1011.5
20260504182612 11 200 3.2 17.7 0.00 0.00 0.25 51 1011.6
20260504182112 11 223 1.6 17.7 0.00 0.00 0.25 50 1011.1
20260504181612 11 232 3.2 17.7 0.00 0.00 0.25 50 1011.3
20260504180556 12 229 1.6 17.7 0.00 0.00 0.25 49 1011.0
20260504175024 12 216 1.6 17.7 0.00 0.00 0.25 51 1011.1
20260504174523 12 191 1.6 17.7 0.00 0.00 0.25 51 1011.1